Location: Poughquag
(41.6090°N, 73.6820°W)
Time: 03:52:53
(UTC-04:00)

Vanguard 3 - All Passes

Search period start: 29 September 2020 00:00
Search period end: 09 October 2020 00:00
Orbit: 508 x 3262 km, 33.3° (Epoch: 29 September)

Date Brightness Start Highest point End Pass type
(mag) Time Alt. Az. Time Alt. Az. Time Alt. Az.
29 Sep - 14:43:08 10° SSW 14:47:05 17° SSE 14:50:10 10° SE daylight
29 Sep - 16:54:29 10° SW 16:58:15 25° S 17:01:23 10° ESE daylight
29 Sep - 19:06:20 10° WSW 19:09:01 19° SSW 19:11:50 10° SE visible
30 Sep - 13:29:29 10° S 13:33:09 14° SSE 13:36:06 10° SE daylight
30 Sep - 15:40:08 10° SW 15:44:45 25° S 15:48:10 10° ESE daylight
30 Sep - 17:52:18 10° WSW 17:55:39 24° S 17:58:40 10° SE daylight
30 Sep - 20:05:24 10° SW 20:06:25 11° SSW 20:07:28 10° S visible
01 Oct - 12:17:45 10° SSE 12:18:54 10° SSE 12:19:59 10° SSE daylight
01 Oct - 14:25:32 10° SW 14:31:01 22° SSE 14:34:53 10° ESE daylight
01 Oct - 16:37:55 10° WSW 16:42:14 28° S 16:45:35 10° ESE daylight
01 Oct - 18:50:30 10° WSW 18:52:57 16° SSW 18:55:23 10° SSE daylight
02 Oct - 13:11:00 10° SSW 13:16:58 19° SSE 13:21:17 10° ESE daylight
02 Oct - 15:23:07 10° SW 15:28:41 30° S 15:32:32 10° ESE daylight
02 Oct - 17:36:02 10° WSW 17:39:36 24° SSW 17:42:38 10° SE daylight
03 Oct - 11:57:02 10° S 12:02:37 15° SSE 12:06:55 10° SE daylight
03 Oct - 14:07:59 10° SW 14:14:53 28° S 14:19:24 10° ESE daylight
03 Oct - 16:21:16 10° WSW 16:26:12 31° S 16:29:47 10° ESE daylight
03 Oct - 18:34:39 10° SW 18:36:51 14° SSW 18:38:56 10° SSE daylight
04 Oct - 10:45:20 10° SSE 10:47:54 11° SSE 10:50:14 10° SE daylight
04 Oct - 12:52:49 10° SSW 13:00:44 25° SSE 13:06:01 10° ESE daylight
04 Oct - 15:06:02 10° WSW 15:12:36 35° S 15:16:52 10° ESE daylight
04 Oct - 17:19:40 10° WSW 17:23:32 24° SSW 17:26:39 10° SE daylight
05 Oct - 11:38:00 10° SSW 11:46:15 21° SSE 11:52:04 10° ESE daylight
05 Oct - 13:50:26 10° SW 13:58:42 34° S 14:03:49 10° ESE daylight
05 Oct - 16:04:30 10° WSW 16:10:08 33° S 16:14:00 10° SE daylight
05 Oct - 18:18:47 10° SW 18:20:41 13° SSW 18:22:26 10° S daylight
06 Oct - 10:24:16 10° S 10:31:23 16° SSE 10:36:59 10° ESE daylight
06 Oct - 12:34:43 10° SW 12:44:26 31° SSE 12:50:32 10° ESE daylight
06 Oct - 14:48:52 10° WSW 14:56:28 39° S 15:01:10 10° ESE daylight
06 Oct - 17:03:10 10° WSW 17:07:25 23° SSW 17:10:40 10° SE daylight
07 Oct - 09:15:19 10° SSE 09:16:14 10° SSE 09:17:07 10° SE daylight
07 Oct - 11:19:17 10° SSW 11:29:46 26° SSE 11:36:45 10° ESE daylight
07 Oct - 13:32:51 10° WSW 13:42:27 40° S 13:48:10 10° ESE daylight
07 Oct - 15:47:37 10° WSW 15:54:00 35° SSW 15:58:11 10° SE daylight
07 Oct - 18:02:55 10° SW 18:04:27 12° SSW 18:05:52 10° S daylight
08 Oct - 10:04:40 10° SSW 10:14:44 21° SSE 10:22:07 10° ESE daylight
08 Oct - 12:16:40 10° SW 12:28:02 37° SSE 12:34:53 10° ESE daylight
08 Oct - 14:31:37 10° WSW 14:40:16 43° S 14:45:25 10° ESE daylight
08 Oct - 16:46:34 10° WSW 16:51:14 23° SSW 16:54:41 10° SSE daylight
